Regional Weather Roundup
Issued by NWS

Home | Current Version | Previous Version | Graphics & Text | Print | Product List | Glossary On
Versions: 1 2 3 4 5 6 7 8 9 10 11 12 13 14 15 16 17 18 19 20 21 22 23 24 25 26 27 28 29 30 31 32 33 34 35 36 37 38 39 40 41 42 43 44 45 46 47 48 49 50
000
ASUS43 KLOT 301206
RWRIL

ILLINOIS REGIONAL WEATHER ROUNDUP
NATIONAL WEATHER SERVICE CHICAGO/ROMEOVILLE IL
700 AM CDT THU OCT 30 2014

NOTE: "FAIR" INDICATES FEW OR NO CLOUDS BELOW 12,000 FEET WITH NO
SIGNIFICANT WEATHER AND/OR OBSTRUCTIONS TO VISIBILITY.

* THESE STATIONS ARE NOT UNDER NWS QUALITY CONTROL. THEY ALSO MAY NOT
  REPORT WEATHER SUCH AS PRECIPITATION OR FOG.

ILZ001-002-007-009-015-016-024-301300-
NORTHWEST ILLINOIS

CITY           SKY/WX    TMP DP  RH WIND       PRES   REMARKS
MOLINE         MOCLDY    33  30  88 E3        30.12F
6HR MIN TEMP:  29; 6HR MAX TEMP:  34;

STERLING*      MOCLDY    30  27  86 SE3       30.12F
SAVANNA*       MOCLDY    32  31  94 CALM      30.12S
$$

ILZ003-004-008-010-011-017-018-301300-
NORTH CENTRAL ILLINOIS

CITY           SKY/WX    TMP DP  RH WIND       PRES   REMARKS
ROCKFORD       MOCLDY    32  29  88 S3        30.13F
6HR MIN TEMP:  31; 6HR MAX TEMP:  34;

FREEPORT*      MOCLDY    34  31  90 CALM      30.13S
ROCHELLE*      MOCLDY    29  28  96 CALM      30.13S
DE KALB*       MOCLDY    32  29  89 CALM      30.13S
PERU*          PTCLDY    34  33  93 SE3       30.14S
$$

ILZ005-006-012>014-019>023-301300-
NORTHEAST ILLINOIS

CITY           SKY/WX    TMP DP  RH WIND       PRES   REMARKS
CHICAGO-OHARE  MOCLDY    35  31  85 CALM      30.13S
6HR MIN TEMP:  32; 6HR MAX TEMP:  38;

CHICAGO-MIDWAY MOCLDY    38  33  82 SW3       30.14S
6HR MIN TEMP:  37; 6HR MAX TEMP:  42;

AURORA         MOCLDY    30  26  85 CALM      30.14F
6HR MIN TEMP:  25; 6HR MAX TEMP:  32;

LANSING*       CLEAR     32  31  97 CALM      30.15S
JOLIET*        PTCLDY    29  28  96 CALM      30.15S
WAUKEGAN       PTCLDY    33  30  88 CALM      30.12S
6HR MIN TEMP:  31; 6HR MAX TEMP:  35;

DUPAGE AIRPORT MOCLDY    33  30  88 SE3       30.13F
6HR MIN TEMP:  31; 6HR MAX TEMP:  34;

KANKAKEE*      CLEAR     31  31  96 CALM      30.16S
WHEELING       PTCLDY    35  30  82 CALM      30.15S
6HR MIN TEMP:  33; 6HR MAX TEMP:  38;

MORRIS*        PTCLDY    31  31  99 CALM      30.14S
ROMEOVILLE*    PTCLDY    32  32 100 CALM      30.14S
NORTHERLY ISL    N/A     41  33  73 W5          N/A
$$

LMZ740>746-301300-
SOUTHERN LAKE MICHIGAN

STATION/POSITION SKY/WX   TEMP    WIND        PRES    VSBY  WAVE
                          AIR SEA DIR/SP/G                  HT/PER
                          (F)     (DEG/KT/KT) (MB)    (MI)  (FT/S)
SOUTHERN BUOY              47 53  240/ 10/ 10 1020.3R         1/ 5
WAUKEGAN HARBOR            39     270/  7/  9   N/A
HARRISON CRIB              46     210/  7/  8   N/A
BURNHAM HARBOR             41     260/  5/  6   N/A
CALUMET HARBOR             38     230/  4/  5 1019.4S
MICHIGAN CITY              42     180/  8/ 10   N/A
$$

ILZ025>027-034>036-040-047-049-050-058-095>099-301300-
WEST-CENTRAL ILLINOIS

CITY           SKY/WX    TMP DP  RH WIND       PRES   REMARKS
QUINCY         MOCLDY    41  34  76 SE6       30.10F
GALESBURG*     MOCLDY    34  32  93 CALM      30.12F
MACOMB*        MOCLDY    31  31  97 SE3       30.14F
JACKSONVILLE*  MOCLDY    41  37  83 S6        30.13F
PITTSFIELD*    MOCLDY    39  36  88 SE5       30.13S
$$

ILZ028>032-037-038-041>044-048-051>054-059>061-301300-
CENTRAL ILLINOIS

CITY           SKY/WX    TMP DP  RH WIND       PRES   REMARKS
PONTIAC        PTCLDY    30  29  96 CALM      30.15S
BLOOMINGTON    PTCLDY    33  32  96 SW6       30.16R WCI  27
DECATUR        CLEAR     35  32  88 S3        30.16S
PEORIA         PTCLDY    37  32  82 CALM      30.15S
6HR MIN TEMP:  35; 6HR MAX TEMP:  37;

LACON*         PTCLDY    30  28  93 CALM      30.14S
LINCOLN*       CLEAR     32  32  97 CALM      30.16S
SPRINGFIELD    CLEAR     36  33  89 CALM      30.15F
6HR MIN TEMP:  33; 6HR MAX TEMP:  38;

TAYLORVILLE    CLEAR     34  32  93 SE6       30.15F WCI  29
$$

ILZ033-039-045-046-055>057-062-063-301300-
EAST-CENTRAL ILLINOIS

CITY           SKY/WX    TMP DP  RH WIND       PRES   REMARKS
CHAMPAIGN      CLEAR     31  29  92 SE5       30.16S WCI  26
DANVILLE*      CLEAR     30  29  98 CALM      30.15R
RANTOUL*       CLEAR     33  31  94 CALM      30.16S
MATTOON        CLEAR     33  32  96 S3        30.15S
PARIS*         CLEAR     30  30  99 CALM      30.18S FOG
$$

ILZ079-100>102-301300-
SOUTHWEST ILLINOIS

CITY           SKY/WX    TMP DP  RH WIND       PRES   REMARKS
ALTON          PTCLDY    36  34  93 E5        30.16S WCI  32
BELLEVILLE     CLEAR     35  34  99 CALM      30.16S
CAHOKIA*       CLEAR     35  34  96 CALM      30.16S
SPARTA*        CLEAR     36  34  94 CALM      30.17S
$$

ILZ064>066-069>071-074>076-080>082-084>086-088>090-092>094-301300-
SOUTH-CENTRAL ILLINOIS

CITY           SKY/WX    TMP DP  RH WIND       PRES   REMARKS
CARBONDALE     FOG       32  30  92 CALM      30.17S VSB 1
6HR MIN TEMP:  31; 6HR MAX TEMP:  37;

CAIRO*           N/A     36  34  91 CALM      30.17R FOG
EFFINGHAM*       N/A     33  31  94 CALM      30.17S
MT. VERNON     CLEAR     30  27  86 CALM      30.17S
CENTRALIA*     CLEAR     34  32  94 CALM      30.16S
SALEM*         CLEAR     39  37  92 CALM      30.17S
METROPOLIS*    CLEAR     35  35 100 CALM      30.17R
$$

ILZ067-068-072-073-078-083-087-091-301300-
SOUTHEAST ILLINOIS

CITY           SKY/WX    TMP DP  RH WIND       PRES   REMARKS
LAWRENCEVILLE  CLEAR     33  32  96 CALM      30.18F FOG
FLORA*         CLEAR     33  33 100 CALM      30.18S
FAIRFIELD*     CLEAR     34  33  98 CALM      30.17S FOG
HARRISBURG*    CLEAR     33  33 100 CALM      30.19S FOG
ROBINSON*      CLEAR     33  33 100 CALM      30.19S
CARMI*           N/A     34  34 100 CALM      30.18R FOG
$$

ABBREVIATIONS USED IN REMARKS
   TC - TEMPERATURE IN CELSIUS
  WCI - WIND CHILL INDEX
   HX - HEAT INDEX
  VSB - VISIBILITY
$$




USA.gov is the U.S. government's official web portal to all federal, state and local government web resources and services.